Somerville, NJ

5:04 PM EDT on September 20, 2017 (GMT -0400)
Somerset

Weather History for KSMQ - August, 2013

Change the Weather History Date:

Saturday, August 17, 2013

  Actual Average Record
Temperature  
Mean Temperature 68 °F -  
Max Temperature 82 °F 83 °F 96 °F (1944)
Min Temperature 54 °F 60 °F 43 °F (1979)
Cooling Degree Days 3    
Growing Degree Days 18 (Base 50)    
Moisture  
Dew Point 57 °F    
Average Humidity 73    
Maximum Humidity 97    
Minimum Humidity 36    
Precipitation  
Precipitation 0.01 in - - ()
Sea Level Pressure  
Sea Level Pressure 30.24 in    
Wind  
Wind Speed 0 mph (WSW)    
Max Wind Speed 5 mph    
Max Gust Speed -    
Visibility 9 miles    
Events      
Averages and records for this station are not official NWS values.
T = Trace of Precipitation, MM = Missing Value Source: NWS Daily Summary

Daily Weather History Graph

Daily Weather History Graph

Search for Another Location

Airport or City:

Trip Planner

Search our weather history database for the weather conditions in past years. The results will help you decide how hot, cold, wet, or windy it might be!

Date:

Astronomy

Aug. 17, 2013 Rise Set
Actual Time 6:11 AM EDT 7:53 PM EDT
Civil Twilight 5:42 AM EDT 8:22 PM EDT
Nautical Twilight 5:06 AM EDT 8:57 PM EDT
Astronomical Twilight 4:29 AM EDT 9:35 PM EDT
Moon 5:07 PM EDT (8/17) 2:11 AM EDT (8/17)
Length of Visible Light 14h 40m
Length of Day
13h 42m
Waxing Gibbous, 84% of the Moon is Illuminated
Aug 17
Waxing Gibbous
Aug 20
Full
Aug 28
Last Quarter
Sep 5
New
Sep 12
First Quarter

Hourly Weather History & Observations

Time (EDT) Temp. Heat Index Dew Point Humidity Pressure Visibility Wind Dir Wind Speed Gust Speed Precip Events Conditions
12:05 AM 59.0 °F - 57.2 °F 94% 30.20 in 3.0 mi Calm Calm - N/A   Clear
12:53 AM 57.9 °F - 55.9 °F 93% 30.22 in 10.0 mi Calm Calm - N/A   Clear
1:53 AM 57.0 °F - 55.0 °F 93% 30.22 in 5.0 mi NW 3.5 mph - N/A   Clear
2:53 AM 55.9 °F - 54.0 °F 93% 30.22 in 3.0 mi Calm Calm - 0.01 in   Clear
3:53 AM 55.0 °F - 54.0 °F 96% 30.22 in 9.0 mi Calm Calm - N/A   Clear
4:53 AM 54.0 °F - 53.1 °F 97% 30.22 in 10.0 mi Calm Calm - N/A   Clear
5:53 AM 54.0 °F - 52.0 °F 93% 30.23 in 10.0 mi Calm Calm - N/A   Clear
6:53 AM 54.0 °F - 53.1 °F 97% 30.24 in 10.0 mi Calm Calm - N/A   Clear
7:53 AM 60.1 °F - 57.0 °F 90% 30.26 in 10.0 mi Calm Calm - N/A   Clear
8:53 AM 66.9 °F - 60.1 °F 79% 30.26 in 10.0 mi Calm Calm - N/A   Unknown
9:53 AM 72.0 °F - 60.1 °F 66% 30.27 in 10.0 mi Calm Calm - N/A   Clear
10:53 AM 75.9 °F - 59.0 °F 56% 30.26 in 10.0 mi Calm Calm - N/A   Clear
11:53 AM 79.0 °F - 57.0 °F 47% 30.26 in 10.0 mi Calm Calm - N/A   Clear
12:53 PM 81.0 °F - 52.0 °F 36% 30.25 in 10.0 mi Calm Calm - N/A   Clear
1:53 PM 80.1 °F 80.2 °F 55.9 °F 43% 30.24 in 10.0 mi South 4.6 mph - N/A   Clear
2:53 PM 82.0 °F 81.4 °F 55.0 °F 39% 30.23 in 10.0 mi Calm Calm - N/A   Clear
3:53 PM 79.0 °F - 59.0 °F 50% 30.22 in 10.0 mi Calm Calm - N/A   Partly Cloudy
4:53 PM 81.0 °F 80.7 °F 55.0 °F 41% 30.22 in 10.0 mi Calm Calm - N/A   Clear
5:53 PM 81.0 °F 80.5 °F 54.0 °F 39% 30.21 in 10.0 mi Calm Calm - N/A   Mostly Cloudy
6:53 PM 75.0 °F - 61.0 °F 62% 30.22 in 10.0 mi Calm Calm - N/A   Clear
7:53 PM 69.1 °F - 63.0 °F 81% 30.23 in 10.0 mi Calm Calm - N/A   Mostly Cloudy
8:53 PM 68.0 °F - 60.1 °F 76% 30.25 in 10.0 mi Calm Calm - N/A   Clear
9:53 PM 64.0 °F - 60.1 °F 87% 30.26 in 10.0 mi Calm Calm - N/A   Clear
10:53 PM 63.0 °F - 60.1 °F 90% 30.26 in 10.0 mi Calm Calm - N/A   Partly Cloudy
11:53 PM 63.0 °F - 60.1 °F 90% 30.26 in 10.0 mi Calm Calm - N/A   Clear